Flag for U.S.A. Weather past 2 weeks in Boise, Idaho, U.S.A.

Now
58 °F

Mostly cloudy.


Feels Like: 56 °F
Forecast: 44 / 52 °F
Wind: 8 mph from West

Location: Boise Air Terminal

Current Time: Oct 26, 2014 at 1:22:28 AM

Latest Report: Oct 26, 2014 at 12:53 AM


Visibility: 10 mi

Pressure: 29.86 "Hg

Humidity: 44%

Dew point: 36 °F

Location of BoiseLocation

Historic Weather in Boise — Graph

°F

Boise temperature yesterday

Maximum temperature yesterday: 76 °F (at 2:53 PM)
Minimum temperature yesterday: 42 °F (at 4:53 AM)
Average temperature yesterday: 56 °F

Past Weeks' High & Low Weather Summary

 TemperatureHumidityPressure
High80 °F (Oct 14, 3:53 PM)100% (Oct 25, 2:53 AM)30.24 "Hg (Oct 25, 2:53 AM)
Low42 °F (Oct 25, 4:53 AM)13% (Oct 13, 4:53 PM)29.51 "Hg (Oct 14, 11:53 PM)
Average57 °F50%29.95 "Hg
* Reported Oct 10 11:53 PM — Oct 25 11:53 PM, Boise, Weather by CustomWeather, © 2014

Note: Actual official high and low records may vary slightly from our data, if they occured in-between our weather recording intervals... More about our weather records

Advertising

Boise weather history for previous 24 hours

 ConditionsComfort  
Time TempWeatherWind HumidityBarometerVisibility
11:53 PM
Oct 25
58 °FPassing clouds.10 mph39%29.83 "Hg10 mi
10:53 PM59 °FClear.No wind36%29.81 "Hg10 mi
9:53 PM61 °FClear.7 mph31%29.79 "Hg10 mi
8:53 PM65 °FClear.21 mph26%29.77 "Hg10 mi
7:53 PM65 °FSunny.8 mph33%29.75 "Hg10 mi
6:53 PM67 °FSunny.12 mph35%29.74 "Hg10 mi
5:53 PM64 °FSunny.5 mph56%29.72 "Hg10 mi
4:53 PM65 °FSunny.5 mph52%29.73 "Hg10 mi
3:53 PM65 °FSunny.8 mph54%29.72 "Hg10 mi
2:53 PM76 °FSunny.12 mph23%29.70 "Hg10 mi
1:53 PM68 °FSunny.14 mph33%29.73 "Hg10 mi
12:53 PM66 °FSunny.9 mph39%29.75 "Hg10 mi
11:53 AM65 °FSunny.10 mph37%29.77 "Hg10 mi
10:53 AM55 °FSunny.6 mph69%29.80 "Hg10 mi
9:53 AM47 °FClear.No wind90%29.82 "Hg10 mi
8:53 AM45 °FClear.6 mph86%29.82 "Hg10 mi
7:53 AM43 °FFog.7 mph97%29.81 "Hg5 mi
6:53 AM42 °FFog.6 mph92%29.83 "Hg3 mi
5:53 AM43 °FFog.No wind100%29.82 "Hg0 mi
5:04 AM43 °FFog.3 mph93%29.85 "Hg1 mi
4:53 AM42 °FFog.3 mph100%29.83 "Hg0 mi
3:53 AM45 °FFog.No wind97%29.84 "Hg0 mi
2:53 AM46 °FFog.No wind100%29.87 "Hg0 mi
1:53 AM47 °FFog.No wind97%29.89 "Hg4 mi
1:00 AM48 °FFog.No wind94%29.93 "Hg1 mi
Weather by CustomWeather, © 2014

See weather overviewHow to use our weather pages